This is the latest recevied weather packets stored in our database for station/object MEGLR. If no packets are shown the sender has not sent any weather packets the latest 10 day(s).
| Time | Temp. | Humidity | Pressure | Rain* | Wind** | Luminosity | Snow |
|---|---|---|---|---|---|---|---|
| 1788561603 | 18.89° C | 61% | 0 hPa | - | - | - | - |
| 1788561003 | 18.89° C | 58% | 0 hPa | - | - | - | - |
| 1788560403 | 18.89° C | 60% | 0 hPa | - | - | - | - |
| 1788559804 | 18.33° C | 63% | 0 hPa | - | - | - | - |
| 1788559204 | 17.78° C | 66% | 0 hPa | - | - | - | - |
| 1788558602 | 18.33° C | 63% | 0 hPa | - | - | - | - |
| 1788558003 | 18.33° C | 62% | 0 hPa | - | - | - | - |
| 1788557403 | 17.78° C | 63% | 0 hPa | - | - | - | - |
| 1788556803 | 17.78° C | 65% | 0 hPa | - | - | - | - |
| 1788556203 | 17.22° C | 68% | 0 hPa | - | - | - | - |
| 1788555605 | 17.22° C | 68% | 0 hPa | - | - | - | - |
| 1788555002 | 16.67° C | 69% | 0 hPa | - | - | - | - |
| 1788554403 | 16.67° C | 70% | 0 hPa | - | - | - | - |
| 1788553803 | 16.67° C | 72% | 0 hPa | - | - | - | - |
| 1788553208 | 16.67° C | 72% | 0 hPa | - | - | - | - |
| 1788552603 | 16.11° C | 75% | 0 hPa | - | - | - | - |
| 1788552004 | 16.11° C | 77% | 0 hPa | - | - | - | - |
| 1788551402 | 16.11° C | 74% | 0 hPa | - | - | - | - |
| 1788550808 | 16.11° C | 72% | 0 hPa | - | - | - | - |
| 1788550203 | 16.11° C | 73% | 0 hPa | - | - | - | - |
| 1788549603 | 15.56° C | 74% | 0 hPa | - | - | - | - |
| 1788549003 | 16.11° C | 74% | 0 hPa | - | - | - | - |
| 1788548404 | 16.11° C | 73% | 0 hPa | - | - | - | - |
| 1788547802 | 15.56° C | 75% | 0 hPa | - | - | - | - |
| 1788547202 | 15.56° C | 74% | 0 hPa | - | - | - | - |
* Rain since midnight (hover to see other rain measurements)
** Current wind speed in m/s (hover to see current wind gust speed)